K5SVV Weather Reports


Display with metric or nautical units.
time (UTC)temp
F
wind
direction
speed
MPH
gust
MPH
rain 1hr
in
rain 24hr
in
rain mn
in
humidity
%
barometer
mb
20260903151957 82 198 6.0 7.0 0.00 0.00 0.00 85 1013.4
20260903151450 82 167 4.0 6.0 0.00 0.00 0.00 85 1013.4
20260903150946 82 106 2.0 3.0 0.00 0.00 0.00 85 1013.4
20260903150445 82 194 5.0 8.0 0.00 0.00 0.00 85 1013.5
20260903145940 82 178 4.0 4.0 0.00 0.00 0.00 84 1013.5
20260903145436 82 160 2.0 4.0 0.00 0.00 0.00 84 1013.2
20260903144931 82 160 6.0 8.0 0.00 0.00 0.00 84 1013.4
20260903144430 82 211 4.0 9.0 0.00 0.00 0.00 84 1013.4
20260903143926 82 160 7.0 9.0 0.00 0.00 0.00 84 1013.4
20260903143422 82 201 8.0 10.0 0.00 0.00 0.00 84 1013.2
20260903142917 82 196 3.0 4.0 0.00 0.00 0.00 85 1013.0
20260903142413 81 189 7.0 9.0 0.00 0.00 0.00 85 1013.2
20260903141908 81 189 5.0 6.0 0.00 0.00 0.00 85 1013.3
20260903141358 81 174 4.0 4.0 0.00 0.00 0.00 86 1013.3
20260903140854 80 194 5.0 9.0 0.00 0.00 0.00 86 1013.3
20260903140349 80 154 4.0 4.0 0.00 0.00 0.00 86 1013.5
20260903135844 80 177 4.0 6.0 0.00 0.00 0.00 87 1013.4
20260903135340 79 178 4.0 4.0 0.00 0.00 0.00 87 1013.3
20260903134838 79 166 2.0 2.0 0.00 0.00 0.00 88 1013.2
20260903134334 79 185 2.0 3.0 0.00 0.00 0.00 89 1013.6
20260903133831 78 166 3.0 4.0 0.00 0.00 0.00 89 1013.0
20260903133328 78 166 1.0 2.0 0.00 0.00 0.00 90 1013.0
20260903132822 77 164 2.0 3.0 0.00 0.00 0.00 91 1013.1
20260903132318 77 159 3.0 3.0 0.00 0.00 0.00 91 1013.1
20260903131813 77 181 2.0 3.0 0.00 0.00 0.00 91 1013.0
20260903131313 77 142 4.0 6.0 0.00 0.00 0.00 92 1012.8
20260903130807 76 186 1.0 1.0 0.00 0.00 0.00 92 1012.8
20260903130307 76 165 2.0 3.0 0.00 0.00 0.00 92 1013.0
20260903125805 75 187 1.0 1.0 0.00 0.00 0.00 92 1013.1
20260903125301 75 166 2.0 2.0 0.00 0.00 0.00 93 1013.0
20260903124800 75 178 0.0 0.0 0.00 0.00 0.00 93 1013.0
20260903124256 75 128 1.0 1.0 0.00 0.00 0.00 93 1012.9
20260903123754 75 181 1.0 2.0 0.00 0.00 0.00 93 1012.8
20260903123254 75 167 0.0 0.0 0.00 0.00 0.00 93 1012.8
20260903122752 75 182 0.0 0.0 0.00 0.00 0.00 93 1012.8
20260903122247 75 183 0.0 0.0 0.00 0.00 0.00 93 1012.8
20260903121745 75 183 0.0 0.0 0.00 0.00 0.00 93 1012.7
20260903121242 75 167 0.0 0.0 0.00 0.00 0.00 93 1012.8
20260903120737 75 183 0.0 0.0 0.00 0.00 0.00 93 1012.4
20260903120230 75 183 0.0 0.0 0.00 0.00 0.00 92 1012.6
20260903115729 75 182 1.0 1.0 0.00 0.00 0.00 92 1012.6
20260903115224 75 183 0.0 0.0 0.00 0.00 0.00 92 1012.6
20260903114719 74 149 0.0 0.0 0.00 0.00 0.00 92 1012.6
20260903114215 75 183 0.0 0.0 0.00 0.00 0.00 92 1012.4
20260903113709 75 183 0.0 0.0 0.00 0.00 0.00 92 1012.6
20260903113205 75 183 0.0 0.0 0.00 0.00 0.00 92 1012.6
20260903112701 75 183 0.0 0.0 0.00 0.00 0.00 92 1012.7
20260903112156 74 183 0.0 0.0 0.00 0.00 0.00 92 1012.5
20260903111655 75 183 0.0 0.0 0.00 0.00 0.00 91 1012.7
20260903111150 75 183 0.0 0.0 0.00 0.00 0.00 91 1012.5
20260903110647 75 183 0.0 0.0 0.00 0.00 0.00 91 1012.5
20260903110143 75 183 0.0 0.0 0.00 0.00 0.00 91 1012.2
20260903105636 75 183 0.0 1.0 0.00 0.00 0.00 91 1012.2
20260903105132 75 183 0.0 1.0 0.00 0.00 0.00 91 1012.5
20260903104631 75 179 2.0 2.0 0.00 0.00 0.00 91 1012.3
20260903104127 75 167 2.0 2.0 0.00 0.00 0.00 91 1012.5
20260903103622 75 183 1.0 1.0 0.00 0.00 0.00 90 1012.4
20260903103118 75 182 0.0 1.0 0.00 0.00 0.00 90 1012.1
20260903102614 75 183 0.0 0.0 0.00 0.00 0.00 90 1012.1
20260903102113 75 183 0.0 0.0 0.00 0.00 0.00 90 1012.1
20260903101607 75 179 0.0 0.0 0.00 0.00 0.00 90 1012.3
20260903101102 75 189 0.0 0.0 0.00 0.00 0.00 89 1012.5
20260903100557 75 185 1.0 2.0 0.00 0.00 0.00 89 1012.4
20260903100056 75 182 0.0 0.0 0.00 0.00 0.00 89 1012.4
20260903095554 75 179 1.0 3.0 0.00 0.00 0.00 89 1012.4
20260903095049 75 183 0.0 0.0 0.00 0.00 0.00 89 1012.6
20260903094549 75 183 0.0 0.0 0.00 0.00 0.00 89 1012.4
20260903094045 75 188 0.0 0.0 0.00 0.00 0.00 89 1012.4
20260903093545 75 189 0.0 0.0 0.00 0.00 0.00 89 1012.6
20260903093041 75 193 0.0 0.0 0.00 0.00 0.00 89 1012.5
20260903092540 75 200 0.0 0.0 0.00 0.00 0.00 89 1012.3
20260903092034 75 200 0.0 0.0 0.00 0.00 0.00 89 1012.3
20260903091532 75 200 0.0 0.0 0.00 0.00 0.00 89 1012.4
20260903091027 75 200 0.0 0.0 0.00 0.00 0.00 89 1012.3
20260903090523 75 200 0.0 0.0 0.00 0.00 0.00 89 1012.3
20260903090022 75 201 0.0 0.0 0.00 0.00 0.00 89 1012.1
20260903085520 75 201 0.0 0.0 0.00 0.00 0.00 89 1012.1
20260903085016 75 201 0.0 0.0 0.00 0.00 0.00 88 1012.4
20260903084514 75 201 0.0 0.0 0.00 0.00 0.00 88 1012.1
20260903084009 75 201 0.0 0.0 0.00 0.00 0.00 88 1012.3
20260903083505 75 201 0.0 0.0 0.00 0.00 0.00 88 1012.3
20260903083005 75 201 0.0 0.0 0.00 0.00 0.00 88 1012.2
20260903082459 75 201 0.0 0.0 0.00 0.00 0.00 88 1012.2
20260903081954 75 201 0.0 0.0 0.00 0.00 0.00 88 1012.4
20260903081449 75 201 0.0 0.0 0.00 0.00 0.00 88 1012.5
20260903080946 75 201 0.0 0.0 0.00 0.00 0.00 87 1012.2
20260903080441 76 200 0.0 0.0 0.00 0.00 0.00 87 1012.3
20260903075937 76 213 0.0 0.0 0.00 0.00 0.00 87 1012.3
20260903075433 76 213 0.0 0.0 0.00 0.00 0.00 87 1011.9
20260903074927 76 213 0.0 0.0 0.00 0.00 0.00 86 1012.1
20260903074426 76 213 0.0 0.0 0.00 0.00 0.00 86 1012.3
20260903073922 76 213 0.0 0.0 0.00 0.00 0.00 86 1012.1
20260903073417 76 215 0.0 0.0 0.00 0.00 0.00 86 1012.3
20260903072913 76 223 0.0 0.0 0.00 0.00 0.00 86 1012.1
20260903072409 76 214 0.0 0.0 0.00 0.00 0.00 86 1012.3
20260903071905 76 203 0.0 0.0 0.00 0.00 0.00 86 1012.2
20260903071401 76 210 0.0 0.0 0.00 0.00 0.00 87 1012.3
20260903070856 76 217 0.0 0.0 0.00 0.00 0.00 87 1012.4
20260903070351 76 213 0.0 0.0 0.00 0.00 0.00 87 1012.5
20260903065846 76 196 0.0 0.0 0.00 0.00 0.00 87 1012.4
20260903065345 76 193 0.0 0.0 0.00 0.00 0.00 87 1012.5
20260903064844 76 204 0.0 0.0 0.00 0.00 0.00 87 1012.4
20260903064340 76 201 0.0 0.0 0.00 0.00 0.00 86 1012.3
20260903063836 76 201 0.0 0.0 0.00 0.00 0.00 86 1012.5
20260903063330 76 201 0.0 0.0 0.00 0.00 0.00 86 1012.4
20260903062821 76 201 0.0 0.0 0.00 0.00 0.00 85 1012.4
20260903062321 77 201 0.0 0.0 0.00 0.00 0.00 85 1012.6
20260903061817 77 201 0.0 0.0 0.00 0.00 0.00 85 1012.5
20260903061316 77 210 2.0 3.0 0.00 0.00 0.00 84 1012.6
20260903060812 77 220 3.0 3.0 0.00 0.00 0.00 84 1012.6
20260903060311 77 196 0.0 0.0 0.00 0.00 0.00 84 1012.7
20260903055809 77 193 0.0 0.0 0.00 0.00 0.00 83 1012.6
20260903055308 77 181 0.0 0.0 0.00 0.00 0.00 83 1012.7
20260903054802 77 194 0.0 0.0 0.00 0.00 0.00 83 1013.0
20260903054257 78 179 0.0 0.0 0.00 0.00 0.00 82 1012.9
20260903053754 78 199 0.0 0.0 0.00 0.00 0.00 82 1012.9
20260903053254 78 195 0.0 0.0 0.00 0.00 0.00 81 1012.7
20260903052744 78 166 0.0 0.0 0.00 0.00 0.00 81 1012.9
20260903052240 78 192 2.0 3.0 0.00 0.00 0.00 80 1013.0
20260903051735 78 192 3.0 3.0 0.00 0.00 0.00 80 1012.9
20260903051230 78 174 1.0 2.0 0.00 0.00 0.00 79 1012.9
20260903050726 79 189 0.0 0.0 0.00 0.00 0.00 79 1013.0
20260903050225 79 188 1.0 1.0 0.00 0.00 0.00 78 1013.1
20260903045720 79 182 1.0 1.0 0.00 0.00 0.00 78 1012.9
20260903045216 79 183 0.0 0.0 0.00 0.00 0.00 78 1013.0
20260903044712 79 176 0.0 1.0 0.00 0.00 0.00 77 1012.9
20260903044207 79 173 1.0 1.0 0.00 0.00 0.00 77 1013.0
20260903043704 80 184 0.0 0.0 0.00 0.00 0.00 76 1012.9
20260903043203 80 170 0.0 0.0 0.00 0.00 0.00 76 1012.7
20260903042702 80 171 0.0 0.0 0.00 0.00 0.00 76 1012.7
20260903042157 80 177 2.0 3.0 0.00 0.00 0.00 75 1012.8
20260903041654 80 173 0.0 0.0 0.00 0.00 0.00 75 1012.8
20260903041149 80 101 1.0 3.0 0.00 0.00 0.00 75 1012.7
20260903040649 81 168 0.0 0.0 0.00 0.00 0.00 74 1012.8
20260903040144 81 174 0.0 0.0 0.00 0.00 0.00 74 1012.9
20260903035639 81 69 0.0 0.0 0.00 0.00 0.00 74 1012.8
20260903035130 81 30 0.0 1.0 0.00 0.00 0.00 73 1012.6
20260903034630 81 178 0.0 0.0 0.00 0.00 0.00 73 1012.6
20260903034120 82 167 0.0 0.0 0.00 0.00 0.00 73 1012.6
20260903033615 82 171 0.0 0.0 0.00 0.00 0.00 72 1012.7
20260903033110 82 169 0.0 1.0 0.00 0.00 0.00 72 1013.0
20260903032610 82 167 0.0 0.0 0.00 0.00 0.00 72 1012.9
20260903032105 82 187 0.0 0.0 0.00 0.00 0.00 72 1012.8
20260903031600 82 164 0.0 0.0 0.00 0.00 0.00 71 1012.8
20260903031056 83 166 0.0 0.0 0.00 0.00 0.00 71 1012.7
20260903030551 83 50 0.0 0.0 0.00 0.00 0.00 71 1012.8
20260903030047 83 173 1.0 1.0 0.00 0.00 0.00 71 1012.6
20260903025542 83 215 2.0 3.0 0.00 0.00 0.00 70 1012.6
20260903025038 84 174 0.0 0.0 0.00 0.00 0.00 70 1012.3
20260903024537 84 184 0.0 1.0 0.00 0.00 0.00 70 1012.4
20260903024032 84 161 1.0 2.0 0.00 0.00 0.00 69 1012.3
20260903023527 84 129 1.0 1.0 0.00 0.00 0.00 69 1012.1
20260903023023 85 97 3.0 6.0 0.00 0.00 0.00 69 1011.9
20260903022522 85 38 0.0 1.0 0.00 0.00 0.00 69 1012.0
20260903022020 85 174 0.0 0.0 0.00 0.00 0.00 69 1011.8
20260903021516 85 189 0.0 0.0 0.00 0.00 0.00 69 1011.9
20260903021011 85 178 0.0 0.0 0.00 0.00 0.00 68 1012.0
20260903020506 85 190 0.0 0.0 0.00 0.00 0.00 68 1011.8
20260903020006 86 163 0.0 0.0 0.00 0.00 0.00 68 1011.9
20260903015502 86 127 0.0 0.0 0.00 0.00 0.00 67 1012.1
20260903014956 86 152 0.0 0.0 0.00 0.00 0.00 67 1011.7
20260903014456 86 134 0.0 1.0 0.00 0.00 0.00 66 1011.9
20260903013951 87 180 0.0 0.0 0.00 0.00 0.00 65 1011.6
20260903013451 87 195 0.0 2.0 0.00 0.00 0.00 64 1011.8
20260903012950 87 181 2.0 3.0 0.00 0.00 0.00 64 1011.7
20260903012449 87 173 0.0 0.0 0.00 0.00 0.00 63 1011.6
20260903011948 88 183 0.0 1.0 0.00 0.00 0.00 63 1011.5
20260903011443 88 168 1.0 2.0 0.00 0.00 0.00 63 1011.5
20260903010938 88 179 1.0 2.0 0.00 0.00 0.00 62 1011.6
20260903010434 88 181 1.0 1.0 0.00 0.00 0.00 62 1011.4
20260903005931 89 177 2.0 3.0 0.00 0.00 0.00 61 1011.4
20260903005427 89 158 3.0 4.0 0.00 0.00 0.00 61 1011.6
20260903004924 89 147 3.0 7.0 0.00 0.00 0.00 61 1011.5
20260903004418 89 195 2.0 2.0 0.00 0.00 0.00 60 1011.5
20260903003913 90 72 2.0 2.0 0.00 0.00 0.00 59 1011.4
20260903003408 90 177 4.0 7.0 0.00 0.00 0.00 59 1011.3
20260903002908 90 113 2.0 3.0 0.00 0.00 0.00 58 1011.4
20260903002403 91 86 4.0 7.0 0.00 0.00 0.00 57 1011.6
20260903001903 91 178 0.0 0.0 0.00 0.00 0.00 57 1011.7
20260903001358 91 155 0.0 0.0 0.00 0.00 0.00 56 1011.3
20260903000857 91 119 3.0 6.0 0.00 0.00 0.00 55 1011.3
20260903000355 92 198 3.0 3.0 0.00 0.00 0.00 53 1011.2
20260902235850 93 83 2.0 4.0 0.00 0.00 0.00 52 1011.3
20260902235346 94 78 4.0 7.0 0.00 0.00 0.00 50 1011.1
20260902234840 95 84 1.0 2.0 0.00 0.00 0.00 48 1011.1
20260902234335 95 133 4.0 6.0 0.00 0.00 0.00 47 1011.0
20260902233834 95 181 1.0 2.0 0.00 0.00 0.00 47 1011.3
20260902233334 95 118 2.0 3.0 0.00 0.00 0.00 48 1011.1
20260902232832 95 145 3.0 4.0 0.00 0.00 0.00 48 1011.1
20260902232327 95 144 4.0 6.0 0.00 0.00 0.00 48 1011.0
20260902231826 95 100 2.0 2.0 0.00 0.00 0.00 49 1011.1
20260902231322 96 125 0.0 1.0 0.00 0.00 0.00 50 1010.8
20260902230817 96 149 2.0 3.0 0.00 0.00 0.00 50 1011.1
20260902230316 96 169 1.0 1.0 0.00 0.00 0.00 49 1011.0
20260902225811 98 74 2.0 3.0 0.00 0.00 0.00 48 1011.0
20260902225306 98 13 3.0 6.0 0.00 0.00 0.00 41 1011.0
20260902224804 98 51 3.0 4.0 0.00 0.00 0.00 41 1010.8
20260902224259 98 50 2.0 4.0 0.00 0.00 0.00 41 1010.9
20260902223756 98 144 0.0 0.0 0.00 0.00 0.00 41 1010.8
20260902223255 98 43 2.0 3.0 0.00 0.00 0.00 41 1011.0
20260902222748 98 38 1.0 1.0 0.00 0.00 0.00 40 1010.9
20260902222243 99 52 5.0 6.0 0.00 0.00 0.00 41 1010.8
20260902221737 99 145 0.0 0.0 0.00 0.00 0.00 42 1010.7
20260902221236 98 201 0.0 0.0 0.00 0.00 0.00 41 1011.1
20260902220731 99 11 5.0 6.0 0.00 0.00 0.00 41 1010.8
20260902220226 99 21 4.0 4.0 0.00 0.00 0.00 41 1011.0
20260902215722 99 104 3.0 4.0 0.00 0.00 0.00 40 1010.8
20260902215217 99 102 2.0 2.0 0.00 0.00 0.00 41 1010.8
20260902214713 98 62 2.0 4.0 0.00 0.00 0.00 41 1010.9
20260902214211 98 51 9.0 10.0 0.00 0.00 0.00 42 1011.2
20260902213707 98 143 1.0 1.0 0.00 0.00 0.00 42 1010.8
20260902213202 99 2 10.0 11.0 0.00 0.00 0.00 41 1011.0
20260902212656 98 147 1.0 1.0 0.00 0.00 0.00 42 1011.0
20260902212153 98 89 5.0 7.0 0.00 0.00 0.00 42 1011.3
20260902211649 98 33 2.0 2.0 0.00 0.00 0.00 42 1011.2
20260902211149 98 126 2.0 2.0 0.00 0.00 0.00 42 1011.5
20260902210648 98 40 4.0 6.0 0.00 0.00 0.00 42 1011.4
20260902210143 98 78 0.0 0.0 0.00 0.00 0.00 43 1011.4
20260902205642 97 15 6.0 8.0 0.00 0.00 0.00 44 1011.6
20260902205137 98 352 7.0 8.0 0.00 0.00 0.00 42 1011.4
20260902204632 97 5 6.0 8.0 0.00 0.00 0.00 44 1011.4
20260902204126 97 45 7.0 10.0 0.00 0.00 0.00 43 1011.4
20260902203622 97 69 3.0 4.0 0.00 0.00 0.00 44 1011.6
20260902203121 97 23 6.0 9.0 0.00 0.00 0.00 44 1012.0
20260902202612 97 11 5.0 6.0 0.00 0.00 0.00 44 1011.9
20260902202108 97 15 8.0 10.0 0.00 0.00 0.00 44 1011.8
20260902201604 97 19 8.0 10.0 0.00 0.00 0.00 44 1011.8
20260902201103 97 33 5.0 6.0 0.00 0.00 0.00 46 1012.1
20260902200558 96 339 9.0 14.0 0.00 0.00 0.00 47 1012.2
20260902200054 97 325 5.0 6.0 0.00 0.00 0.00 46 1012.1
20260902195550 97 351 8.0 9.0 0.00 0.00 0.00 45 1012.2
20260902195048 96 336 6.0 8.0 0.00 0.00 0.00 46 1012.3
20260902194542 96 23 9.0 9.0 0.00 0.00 0.00 47 1012.4
20260902194038 97 325 3.0 3.0 0.00 0.00 0.00 47 1012.4
20260902193534 96 8 1.0 2.0 0.00 0.00 0.00 46 1012.4
20260902193033 96 344 8.0 10.0 0.00 0.00 0.00 46 1012.4
20260902192531 96 333 7.0 8.0 0.00 0.00 0.00 45 1012.7
20260902192030 96 328 9.0 10.0 0.00 0.00 0.00 45 1012.8
20260902191526 96 42 9.0 10.0 0.00 0.00 0.00 44 1013.0
20260902191020 95 67 2.0 3.0 0.00 0.00 0.00 48 1012.9
20260902190516 95 306 4.0 6.0 0.00 0.00 0.00 50 1013.3
20260902190012 95 308 7.0 9.0 0.00 0.00 0.00 50 1013.4
20260902185508 94 16 6.0 7.0 0.00 0.00 0.00 49 1013.3
20260902185003 94 358 1.0 3.0 0.00 0.00 0.00 51 1013.3
20260902184458 95 20 9.0 11.0 0.00 0.00 0.00 50 1013.3
20260902183953 96 72 4.0 6.0 0.00 0.00 0.00 48 1013.5
20260902183449 96 103 2.0 3.0 0.00 0.00 0.00 47 1013.6
20260902182945 96 283 0.0 0.0 0.00 0.00 0.00 47 1013.6
20260902182441 95 115 0.0 0.0 0.00 0.00 0.00 48 1013.7
20260902181937 95 28 0.0 0.0 0.00 0.00 0.00 48 1013.7
20260902181432 95 332 5.0 8.0 0.00 0.00 0.00 48 1013.8
20260902180926 95 6 5.0 7.0 0.00 0.00 0.00 48 1014.0
20260902180421 95 79 4.0 6.0 0.00 0.00 0.00 50 1014.1
20260902175912 95 41 0.0 0.0 0.00 0.00 0.00 49 1014.1
20260902175406 94 88 1.0 1.0 0.00 0.00 0.00 50 1014.6
20260902174901 93 63 1.0 2.0 0.00 0.00 0.00 51 1014.6
20260902174353 93 75 1.0 2.0 0.00 0.00 0.00 54 1014.7
20260902173848 93 42 3.0 4.0 0.00 0.00 0.00 53 1014.8
20260902173348 93 11 4.0 7.0 0.00 0.00 0.00 52 1014.6
20260902172843 93 29 3.0 3.0 0.00 0.00 0.00 52 1014.5
20260902172341 92 4 4.0 4.0 0.00 0.00 0.00 55 1015.0
20260902171832 92 12 6.0 7.0 0.00 0.00 0.00 57 1015.0
20260902171327 91 273 2.0 2.0 0.00 0.00 0.00 57 1015.0
20260902170824 91 33 5.0 7.0 0.00 0.00 0.00 58 1015.2
20260902170319 91 156 0.0 0.0 0.00 0.00 0.00 58 1015.2
20260902165814 91 6 5.0 7.0 0.00 0.00 0.00 57 1015.3
20260902165313 92 321 4.0 4.0 0.00 0.00 0.00 58 1015.2
20260902164808 91 121 1.0 2.0 0.00 0.00 0.00 57 1015.4
20260902164302 91 19 3.0 3.0 0.00 0.00 0.00 59 1015.3
20260902163752 92 136 0.0 0.0 0.00 0.00 0.00 59 1015.5
20260902163251 91 158 0.0 0.0 0.00 0.00 0.00 59 1015.4
20260902162750 90 35 5.0 6.0 0.00 0.00 0.00 59 1015.5
20260902162245 91 335 2.0 3.0 0.00 0.00 0.00 60 1015.5
20260902161740 90 155 1.0 1.0 0.00 0.00 0.00 61 1015.6
20260902161235 88 134 0.0 0.0 0.00 0.00 0.00 62 1015.5
20260902160732 88 4 7.0 8.0 0.00 0.00 0.00 63 1015.6
20260902160226 88 329 4.0 4.0 0.00 0.00 0.00 65 1015.8
20260902155724 89 329 2.0 2.0 0.00 0.00 0.00 63 1015.5
20260902155223 88 95 0.0 0.0 0.00 0.00 0.00 64 1015.7
20260902154718 88 319 0.0 0.0 0.00 0.00 0.00 65 1015.6
20260902154213 87 163 0.0 2.0 0.00 0.00 0.00 64 1015.7
20260902153712 87 2 4.0 6.0 0.00 0.00 0.00 66 1015.5
20260902153207 87 16 5.0 6.0 0.00 0.00 0.00 66 1015.7
20260902152703 87 30 2.0 2.0 0.00 0.00 0.00 67 1016.0